User: anonymous   Login
Location: Theydon Bois
(51.6750°N, 0.1050°E)
Time: 09:50:20
(UTC+00:00)
Language:

CZ-3A R/B - Orbit

View from above orbital plane
View from above orbital plane
View from above satellite
View from above satellite

Ground track
Ground track

The orbit data is extracted from the following two-line orbital elements,

1 37385U 11013B   18055.26520308 -.00000147 +00000-0 -32101-2 0  9990
2 37385 055.4667 172.1705 6585834 167.0755 225.9339 02.63325106065084
Epoch (UTC): 24 February 2018 06:21:53
Eccentricity: 0.6585834
inclination: 55.4667°
perigee height: 1185 km
apogee height: 30362 km
right ascension of ascending node: 172.1705°
argument of perigee: 167.0755°
revolutions per day: 2.63325106
mean anomaly at epoch: 225.9339°
orbit number at epoch: 6508

The dashed part of the orbit path shows where the satellite is in the earth's shadow,  

DLR